Temperature
18 18 18 18 17 17 17 17 17 17 17 17 17 17 17 18 17 17 17 17 17 18 18 18 17 17 17 17 17 17 17 17 17 16 16 16 16 16 16 16 16 16 16
18 17 17 17 17 17 17 17 17 17 17 17 17 17 17 17 17 17 17 17 17 17 17 17 17 17 17 17 17 17 17 17 17 16 16 16 16 16 16 16 16 16 16
17 17 17 17 17 17 17 17 17 17 17 17 17 17 17 17 17 17 17 17 17 17 17 17 17 17 17 17 17 17 17 17 17 16 16 16 16 16 16 16 16 16 16
17 17 17 17 17 17 17 17 16 16 16 17 17 17 17 17 17 17 17 17 17 17 17 17 17 17 17 17 17 17 17 17 17 16 16 16 16 16 16 16 16 16 16
17 17 17 17 17 16 16 16 16 16 16 16 17 17 17 17 17 17 17 17 17 16 17 17 17 17 17 17 16 16 16 16 16 16 16 16 16 16 16 16 16 16 16
17 17 16 17 16 16 16 16 16 16 16 16 17 17 17 17 17 17 17 17 17 17 16 16 16 16 16 16 16 16 16 16 16 16 16 16 16 16 16 16 16 16 16
17 16 16 16 16 16 16 16 16 16 16 16 16 17 17 17 17 17 17 16 16 16 16 16 16 16 16 16 16 16 16 16 16 16 16 16 16 16 16 16 16 16 16
16 16 16 16 16 16 15 15 16 16 16 16 16 17 17 17 17 17 17 16 16 16 16 16 16 16 16 16 16 16 16 16 16 16 16 16 15 16 16 16 16 16 16
16 16 16 16 15 15 15 15 15 15 16 16 16 16 16 17 17 17 17 16 16 16 16 16 16 16 16 16 16 16 16 16 15 16 15 15 15 15 15 16 16 16 16
16 16 16 15 15 15 15 15 15 15 15 16 16 16 16 16 16 16 16 16 16 16 16 16 16 16 16 15 15 15 15 15 15 15 15 15 15 15 15 15 15 16 16
16 16 15 15 15 15 15 15 15 15 15 15 16 16 16 16 16 16 16 16 16 16 16 16 16 16 15 15 15 15 15 15 15 15 15 15 15 15 15 15 15 15 15
16 16 15 15 15 15 15 15 15 15 15 15 15 15 15 16 16 16 16 16 16 16 16 16 16 15 15 15 15 15 15 15 15 15 15 15 15 15 15 15 15 15 15
16 16 15 15 15 15 15 15 15 14 14 15 15 15 15 15 15 15 15 16 16 16 16 16 16 15 15 15 15 15 14 14 15 15 15 15 15 15 15 15 15 15 15
16 16 16 16 15 15 15 15 14 14 14 14 14 14 14 15 15 15 15 15 15 16 16 16 16 15 15 15 14 14 14 14 14 14 14 14 15 15 15 15 15 15 15
17 16 16 16 15 15 15 15 14 14 14 14 14 14 14 14 14 14 14 14 14 14 15 15 15 15 15 14 14 14 14 14 13 14 14 14 14 14 14 14 14 15 15
17 16 16 16 15 15 15 15 14 14 14 14 14 14 14 14 14 14 14 14 14 14 14 15 15 15 15 14 14 14 13 13 13 13 13 14 14 14 14 14 14 14 14
17 16 16 16 15 15 15 15 15 14 14 14 14 14 14 14 14 14 14 14 14 14 14 14 14 14 14 14 14 14 13 13 13 13 13 13 14 14 14 14 14 14 14
16 16 16 16 15 15 15 15 15 15 14 14 14 14 14 14 14 14 14 14 14 14 14 14 14 14 14 14 14 13 13 13 13 13 13 13 13 13 13 13 14 14 14
16 16 16 16 16 15 15 15 15 15 15 14 14 14 14 14 14 14 14 14 14 13 13 13 13 13 14 13 13 13 13 13 13 13 13 13 13 13 13 13 13 13 14
17 16 16 16 16 15 15 15 15 15 15 14 14 14 14 14 14 14 14 14 14 13 13 13 13 13 13 14 13 13 13 13 13 13 13 13 13 13 13 13 13 13 13
17 16 16 16 16 15 15 15 15 15 15 15 15 14 14 14 14 14 14 14 13 13 13 13 13 13 13 13 13 13 13 13 13 13 13 13 13 13 13 13 13 13 13
17 16 16 16 16 16 16 15 15 15 15 15 15 15 14 14 14 14 14 14 14 13 13 13 13 13 13 13 13 13 12 12 12 12 12 12 12 12 12 12 12 13 13
17 16 16 16 16 16 15 15 15 15 15 15 15 15 14 14 14 14 14 14 14 14 13 13 13 13 13 13 13 12 12 12 12 12 12 12 12 12 12 12 12 12 12
17 17 16 16 16 16 16 16 15 15 15 15 15 15 15 15 15 14 14 13 13 14 14 13 13 14 13 13 13 12 12 12 12 12 12 11 12 12 12 12 12 12 12
16 16 16 16 15 16 15 15 15 15 15 15 15 15 15 15 15 14 13 13 13 13 13 13 13 13 13 13 13 12 12 11 11 12 12 11 12 12 12 12 12 12 12
16 16 15 15 15 15 15 15 15 14 14 14 14 14 14 14 14 14 13 13 13 14 13 13 13 12 12 12 12 12 12 11 11 11 12 12 12 12 12 12 12 12 12
Wind_Speed
3 4 3 2 2 2 1 1 1 1 1 1 2 1 2 3 2 3 8 11 11 10 9 9 9 10 10 10 10 9 9 8 8 7 7 8 8 7 7 8 8 8 8
4 3 2 2 2 2 2 1 1 1 0 1 2 2 2 3 2 1 4 8 9 9 9 9 9 10 10 11 11 10 10 9 9 10 9 9 9 9 8 8 8 8 9
4 2 2 2 1 3 3 1 1 0 1 1 1 1 1 2 2 2 2 5 8 9 10 11 10 11 11 11 11 11 11 11 10 11 12 12 11 11 10 10 9 9 10
3 1 2 3 1 1 2 2 1 0 1 1 1 1 1 2 3 5 3 3 5 6 10 12 11 12 12 12 11 12 11 12 12 13 13 13 13 12 12 11 11 11 11
3 3 3 3 1 1 2 2 3 2 1 1 2 2 2 3 2 3 2 3 4 5 8 10 12 12 12 12 13 13 13 13 13 13 13 13 14 14 14 13 13 13 13
3 2 5 2 1 3 3 3 2 1 1 1 4 1 2 2 2 1 1 2 3 4 5 7 9 10 12 13 14 13 14 15 15 16 15 15 16 16 16 16 16 15 15
5 1 3 3 2 4 3 3 2 1 0 1 2 2 3 3 3 2 0 0 0 1 3 6 6 5 8 12 14 14 14 14 15 16 17 17 17 17 18 19 18 17 17
6 5 2 3 3 3 3 2 1 2 1 2 2 2 1 2 0 3 2 2 1 0 1 4 6 6 5 8 10 13 13 13 14 15 16 17 18 18 19 19 19 20 19
5 3 3 2 2 3 3 1 1 2 2 1 2 2 2 2 0 2 2 2 1 0 1 2 4 6 6 6 7 9 11 11 11 12 14 17 19 20 20 21 21 20 20
6 5 4 2 1 2 3 2 2 1 1 1 1 1 2 2 1 1 1 2 3 2 1 1 1 3 5 6 8 7 7 7 7 9 11 13 15 18 19 20 20 20 20
5 6 5 4 2 2 3 3 2 2 2 3 2 1 1 1 2 1 0 1 2 2 3 2 1 0 2 5 7 7 7 6 5 5 7 8 10 13 16 18 19 20 20
5 6 6 4 3 2 3 3 2 2 1 3 4 3 2 1 2 1 2 2 1 1 2 2 1 0 1 5 6 8 7 6 5 4 5 7 9 10 12 14 16 18 20
6 7 7 6 4 3 4 3 2 1 1 0 2 3 3 3 3 3 3 3 3 2 2 3 3 3 2 7 8 6 6 6 5 4 5 5 7 8 10 12 14 15 17
7 9 7 6 5 5 5 4 3 4 3 2 2 1 3 3 2 2 2 3 4 4 1 0 2 2 3 5 7 3 4 8 7 7 7 7 7 8 9 10 11 12 14
6 9 8 7 6 5 4 5 3 3 4 3 3 4 3 2 2 1 2 2 2 4 3 2 1 2 3 3 7 4 5 8 10 11 11 11 11 11 11 11 11 12 12
5 9 8 8 7 6 6 5 4 4 4 3 3 2 2 3 2 1 2 2 2 3 3 3 3 1 1 2 2 3 6 9 13 16 17 17 15 14 14 13 13 13 14
6 7 7 7 7 7 7 6 6 5 6 5 5 5 4 4 2 3 2 2 3 3 4 4 4 3 1 3 4 6 9 11 13 18 21 21 19 18 17 17 16 16 16
7 7 8 8 8 8 8 8 8 7 6 6 6 5 5 5 5 4 3 4 3 3 3 5 5 5 5 5 5 5 8 11 11 13 15 20 22 21 20 19 19 19 19
8 8 8 8 8 8 8 8 8 7 6 6 6 6 6 6 5 5 4 5 4 5 3 4 5 5 5 5 5 5 7 6 11 13 14 19 22 22 22 22 22 22 22
9 9 9 9 8 8 8 8 8 8 7 6 6 6 6 7 7 6 6 6 6 5 6 6 6 5 5 5 3 4 5 5 6 8 9 9 16 23 25 26 26 25 25
11 9 9 9 9 9 10 10 8 9 8 8 8 7 8 9 9 7 7 5 5 5 5 5 6 5 5 3 3 3 5 5 5 5 5 6 6 8 13 21 25 26 27
9 9 9 9 10 11 12 13 10 7 6 8 8 8 9 9 12 14 14 12 9 8 7 6 6 7 6 5 4 4 4 5 5 4 4 5 4 5 5 10 17 23 27
9 9 9 9 9 9 9 11 12 7 7 7 7 7 10 11 10 10 13 16 16 17 15 10 11 11 9 7 6 6 6 6 7 5 6 8 6 7 6 15 18 18 21
8 8 8 8 8 9 11 12 12 9 8 8 8 9 9 10 11 9 9 10 12 13 15 14 14 14 13 10 9 9 9 8 8 8 8 10 8 8 9 10 16 17 19
7 7 7 8 8 9 12 13 12 7 8 10 10 11 11 11 14 15 11 11 11 11 15 19 20 20 22 20 13 7 8 8 10 9 7 8 8 8 7 7 11 18 21
6 6 7 8 9 9 11 13 13 8 8 9 9 10 14 15 16 15 12 11 13 12 12 13 12 15 17 18 19 14 12 11 11 9 8 8 8 7 7 6 6 7 11
Wind_Direction
101 106 110 125 127 123 114 49 332 290 282 335 317 343 2 352 16 103 144 156 161 167 175 182 188 189 188 185 183 184 184 183 181 179 179 176 177 181 182 182 176 172 170
103 119 145 142 149 145 140 200 245 249 38 14 316 5 347 337 359 24 149 158 169 182 188 192 197 194 193 193 191 192 193 194 192 193 195 192 190 190 192 193 191 187 184
125 153 153 144 117 143 141 152 56 253 202 211 206 271 277 304 325 315 253 175 175 191 202 201 200 199 199 199 198 197 198 199 201 203 206 206 203 199 199 202 202 199 196
144 189 113 90 42 127 131 136 125 30 6 11 313 280 225 213 240 243 235 184 171 191 202 207 206 204 204 203 203 203 203 203 208 212 214 214 212 208 207 208 209 207 205
145 111 89 78 293 102 81 59 74 37 10 5 274 221 238 202 214 238 211 187 171 176 184 196 206 206 205 208 210 211 208 209 215 221 222 223 222 219 216 214 215 213 211
128 110 121 95 28 76 71 69 72 59 304 326 306 250 234 207 184 139 264 188 172 182 168 167 193 207 210 212 214 215 215 213 217 222 226 228 227 225 223 221 220 219 216
132 87 104 123 90 86 74 62 21 259 212 14 304 273 209 185 152 142 209 49 177 194 151 162 173 189 194 213 218 218 219 219 218 221 225 228 229 228 227 226 224 222 221
158 157 129 147 113 115 97 86 41 338 324 94 326 309 230 134 189 146 155 173 120 8 246 189 173 181 196 188 206 216 219 220 220 220 224 228 232 233 232 230 228 226 225
146 108 126 119 146 155 130 109 24 28 359 359 48 1 359 42 111 135 146 111 114 191 285 247 189 177 193 179 181 203 215 219 225 224 224 228 232 235 235 233 230 229 228
156 156 152 140 109 107 133 180 108 322 293 306 139 109 75 68 348 24 227 143 188 185 219 312 303 200 179 157 154 168 189 203 219 229 232 232 231 234 236 236 234 231 230
172 172 165 162 162 130 117 95 97 3 342 350 351 68 113 193 238 249 251 246 240 185 170 184 293 292 144 147 143 150 166 186 205 224 236 240 239 239 241 239 239 237 235
180 177 171 168 181 163 145 140 146 153 43 15 350 347 348 344 328 336 322 290 272 212 166 146 205 242 151 138 135 144 164 182 203 228 244 250 250 248 247 244 244 244 241
181 178 178 169 183 164 165 163 166 169 158 105 322 323 347 356 1 357 343 334 339 297 204 188 189 177 189 127 131 144 178 188 201 223 246 255 259 257 255 252 248 249 247
179 163 165 169 186 183 184 173 191 186 178 206 252 324 324 322 337 344 341 340 323 312 296 201 135 142 111 115 142 176 203 210 214 229 242 248 253 256 256 256 252 252 251
155 156 167 174 182 187 188 175 212 206 169 197 220 213 236 271 267 303 322 327 321 323 326 325 2 130 144 157 170 218 254 233 226 236 244 244 246 248 250 250 252 252 253
159 156 170 176 181 181 188 198 218 201 197 212 228 240 247 286 301 271 267 274 277 283 295 319 306 297 60 305 228 267 282 266 243 242 242 240 240 243 245 246 248 250 251
163 168 178 184 187 186 186 197 232 207 200 214 231 220 211 242 281 298 280 261 254 260 274 290 303 316 275 243 254 264 275 266 255 248 241 236 236 238 240 243 245 247 248
180 182 188 193 199 195 190 195 219 222 206 210 223 231 229 230 218 243 274 282 275 265 257 274 284 282 271 249 233 232 261 272 274 275 244 233 233 235 238 241 244 245 246
191 193 194 199 209 206 194 199 209 226 226 219 220 225 230 236 237 234 239 260 272 274 259 263 272 266 263 258 248 248 257 261 272 278 253 234 232 236 239 241 242 243 243
195 200 197 202 206 212 206 204 207 217 227 231 230 230 232 234 234 233 242 241 249 262 269 265 264 264 258 250 235 242 263 256 262 279 284 262 238 236 238 241 242 242 242
202 201 203 205 207 212 216 210 211 217 215 226 233 233 236 235 235 233 246 244 252 253 262 266 269 271 266 267 262 258 269 271 263 261 262 264 249 234 237 242 245 246 244
202 197 202 209 212 221 215 206 204 228 222 223 231 236 244 238 231 229 235 240 240 247 256 264 272 271 274 277 276 273 273 278 278 272 280 278 276 268 254 253 247 242 242
201 205 205 210 218 219 208 199 205 219 239 247 245 242 251 254 236 226 228 233 240 241 238 243 257 262 269 274 280 279 270 269 271 277 295 281 270 268 262 268 269 256 240
201 208 212 216 221 220 202 196 200 216 236 245 250 251 249 256 261 253 248 241 233 235 233 233 240 247 250 252 253 257 260 266 264 257 245 258 257 254 260 257 261 257 244
199 204 211 216 222 223 204 199 193 218 237 245 248 250 249 251 251 249 250 254 256 252 247 238 226 231 236 242 243 253 258 262 268 265 246 249 253 251 248 247 249 251 242
204 210 218 220 226 228 208 201 198 222 240 248 249 249 250 250 254 250 246 249 253 255 258 263 248 241 242 245 238 233 241 250 258 264 253 250 256 255 260 248 243 248 243
Height
1560 1561 1561 1562 1562 1563 1563 1564 1564 1565 1566 1567 1567 1568 1569 1569 1570 1570 1571 1572 1573 1575 1576 1577 1579 1580 1581 1583 1584 1586 1588 1589 1591 1593 1594 1595 1597 1598 1599 1601 1602 1603 1605
1559 1560 1561 1561 1561 1562 1562 1563 1563 1564 1564 1565 1566 1567 1567 1568 1569 1569 1570 1571 1572 1573 1575 1576 1577 1579 1580 1581 1583 1585 1586 1588 1590 1592 1593 1594 1596 1597 1599 1600 1602 1603 1604
1558 1559 1560 1561 1561 1561 1562 1562 1562 1563 1564 1564 1565 1565 1566 1566 1567 1568 1569 1570 1570 1572 1573 1574 1576 1577 1578 1579 1581 1583 1584 1586 1588 1590 1592 1593 1595 1596 1598 1599 1601 1602 1603
1558 1559 1560 1560 1560 1561 1562 1562 1562 1562 1563 1563 1564 1565 1565 1566 1567 1567 1568 1569 1570 1571 1572 1573 1574 1575 1576 1577 1578 1580 1582 1584 1586 1588 1590 1591 1593 1594 1596 1598 1599 1601 1602
1557 1558 1558 1559 1560 1560 1561 1561 1561 1562 1562 1563 1563 1564 1565 1566 1566 1567 1568 1569 1569 1570 1570 1571 1572 1573 1574 1575 1576 1578 1580 1581 1583 1585 1587 1589 1591 1592 1594 1596 1597 1599 1600
1556 1557 1557 1558 1559 1559 1560 1560 1561 1561 1562 1562 1563 1564 1564 1565 1566 1567 1567 1568 1569 1569 1569 1570 1570 1571 1572 1573 1575 1576 1577 1578 1580 1582 1584 1586 1588 1589 1591 1593 1594 1596 1598
1555 1556 1557 1557 1558 1558 1559 1560 1560 1561 1562 1562 1563 1563 1564 1564 1565 1566 1566 1567 1567 1568 1568 1569 1569 1570 1570 1571 1572 1573 1574 1575 1577 1578 1580 1582 1584 1586 1587 1589 1591 1593 1595
1554 1556 1556 1557 1557 1558 1558 1559 1560 1560 1562 1562 1562 1562 1563 1565 1564 1565 1566 1566 1567 1567 1568 1568 1568 1568 1569 1569 1570 1571 1572 1573 1574 1575 1577 1578 1580 1582 1584 1586 1587 1589 1591
1553 1554 1555 1556 1557 1557 1558 1558 1559 1560 1561 1562 1562 1562 1563 1563 1564 1565 1565 1566 1566 1566 1566 1567 1567 1567 1568 1568 1568 1569 1570 1571 1572 1573 1574 1575 1576 1578 1579 1581 1583 1585 1587
1552 1553 1554 1555 1556 1557 1557 1558 1558 1559 1560 1561 1562 1562 1563 1563 1564 1565 1566 1565 1565 1565 1565 1566 1566 1566 1567 1567 1567 1567 1568 1568 1569 1570 1571 1572 1573 1574 1575 1577 1578 1580 1582
1550 1552 1553 1554 1555 1556 1556 1557 1557 1558 1559 1560 1561 1562 1562 1563 1563 1564 1565 1565 1565 1565 1564 1565 1565 1565 1565 1565 1565 1565 1566 1566 1567 1567 1568 1569 1570 1570 1571 1572 1573 1575 1577
1549 1550 1551 1552 1554 1554 1555 1556 1556 1557 1558 1558 1559 1560 1562 1562 1563 1563 1563 1564 1564 1564 1563 1563 1564 1564 1564 1564 1563 1564 1564 1564 1564 1564 1565 1565 1566 1567 1567 1568 1569 1570 1572
1547 1548 1550 1550 1552 1553 1554 1554 1555 1556 1556 1557 1558 1559 1560 1561 1561 1562 1562 1562 1562 1562 1562 1562 1562 1562 1563 1562 1561 1561 1561 1561 1561 1561 1561 1562 1562 1563 1563 1564 1565 1565 1567
1545 1546 1548 1549 1550 1551 1552 1553 1554 1555 1555 1556 1557 1558 1558 1559 1560 1561 1561 1561 1561 1561 1561 1561 1561 1561 1561 1560 1559 1559 1558 1558 1558 1557 1557 1558 1558 1558 1559 1559 1560 1561 1561
1544 1544 1546 1547 1548 1549 1550 1551 1552 1553 1554 1555 1555 1556 1557 1558 1558 1559 1559 1560 1561 1560 1559 1559 1559 1559 1558 1558 1557 1556 1555 1554 1554 1554 1553 1553 1553 1554 1554 1555 1555 1556 1556
1542 1542 1543 1544 1545 1546 1548 1549 1550 1551 1552 1553 1554 1554 1555 1556 1556 1557 1557 1558 1558 1558 1558 1557 1557 1557 1556 1555 1555 1553 1552 1551 1550 1549 1549 1549 1549 1549 1549 1549 1550 1550 1551
1539 1540 1541 1542 1543 1544 1545 1547 1548 1550 1550 1551 1552 1552 1553 1553 1554 1554 1555 1555 1555 1555 1555 1554 1554 1554 1552 1551 1550 1549 1548 1547 1546 1545 1545 1545 1544 1544 1544 1544 1544 1545 1545
1535 1536 1538 1539 1540 1542 1543 1544 1545 1547 1548 1548 1549 1550 1550 1551 1551 1552 1552 1552 1552 1552 1552 1550 1550 1549 1549 1548 1546 1545 1544 1543 1543 1542 1541 1540 1540 1539 1539 1538 1538 1538 1539
1531 1533 1534 1536 1537 1539 1540 1542 1543 1544 1545 1546 1547 1547 1548 1548 1548 1548 1548 1548 1549 1549 1548 1547 1546 1546 1545 1544 1543 1542 1541 1539 1539 1538 1537 1536 1535 1534 1534 1533 1533 1532 1532
1528 1529 1531 1532 1534 1536 1537 1538 1540 1541 1542 1543 1543 1544 1544 1544 1545 1545 1545 1545 1545 1544 1544 1543 1542 1541 1541 1540 1539 1538 1536 1536 1535 1534 1533 1532 1530 1529 1529 1528 1527 1527 1526
1524 1525 1527 1529 1530 1532 1533 1535 1536 1537 1538 1539 1539 1540 1540 1540 1540 1541 1541 1541 1540 1540 1539 1539 1538 1537 1536 1536 1535 1533 1532 1531 1530 1529 1528 1527 1526 1524 1523 1522 1522 1521 1521
1519 1521 1522 1524 1526 1528 1530 1531 1533 1534 1535 1535 1535 1536 1536 1536 1536 1536 1536 1536 1536 1535 1534 1534 1533 1532 1531 1531 1530 1529 1527 1526 1524 1524 1523 1521 1520 1519 1518 1517 1516 1515 1515
1515 1517 1518 1520 1521 1523 1525 1527 1528 1529 1530 1530 1530 1531 1531 1531 1532 1531 1530 1530 1529 1529 1529 1528 1526 1525 1525 1525 1524 1523 1522 1520 1518 1517 1516 1513 1513 1511 1511 1510 1510 1509 1508
1510 1512 1513 1515 1517 1518 1520 1521 1523 1524 1524 1525 1525 1525 1525 1525 1525 1526 1525 1524 1523 1522 1521 1521 1519 1518 1518 1518 1518 1517 1515 1513 1511 1510 1510 1506 1505 1504 1503 1503 1503 1502 1501
1504 1506 1508 1510 1512 1513 1515 1516 1518 1518 1518 1518 1519 1519 1519 1518 1519 1519 1518 1517 1516 1515 1515 1514 1512 1511 1511 1510 1510 1510 1508 1506 1503 1502 1503 1501 1499 1498 1497 1496 1496 1495 1494
1501 1502 1504 1506 1507 1509 1510 1511 1512 1512 1512 1512 1512 1512 1512 1512 1512 1512 1511 1510 1508 1507 1507 1506 1505 1504 1503 1502 1501 1501 1499 1498 1496 1494 1494 1495 1493 1492 1490 1489 1488 1488 1487